CDT,Max TemperatureF,Mean TemperatureF,Min TemperatureF,Max Dew PointF,MeanDew PointF,Min DewpointF,Max Humidity, Mean Humidity, Min Humidity, Max Sea Level PressureIn, Mean Sea Level PressureIn, Min Sea Level PressureIn, Max VisibilityMiles, Mean VisibilityMiles, Min VisibilityMiles, Max Wind SpeedMPH, Mean Wind SpeedMPH, Max Gust SpeedMPH,PrecipitationIn, CloudCover, Events, WindDirDegrees
2013-5-1,84,71,58,58,54,51,80,56,33,30.15,30.10,30.00,10,10,10,20,7,24,0.00,0,,155
2013-5-2,63,52,41,55,44,37,90,76,56,30.20,30.15,30.12,10,10,10,18,9,24,0.00,1,,346
2013-5-3,64,52,40,53,46,38,93,84,63,30.11,30.02,29.95,10,9,4,14,6,21,0.15,6,Rain,3
2013-5-4,76,65,53,51,47,41,84,58,33,30.03,29.98,29.95,10,10,10,21,8,29,0.00,2,,106
2013-5-5,76,62,48,48,45,41,83,59,30,30.02,29.99,29.96,10,10,9,23,8,30,0.00,3,,62
2013-5-6,75,63,50,49,42,37,75,53,32,30.02,29.99,29.96,10,10,7,15,6,20,0.00,3,,5
2013-5-7,76,61,45,51,45,39,76,54,36,30.05,30.01,29.99,10,10,10,13,5,18,0.00,1,,11
2013-5-8,79,66,52,54,47,43,72,51,33,30.04,30.00,29.98,10,10,10,14,3,17,0.00,1,,360
2013-5-9,79,64,49,59,54,46,96,74,36,29.98,29.93,29.83,10,9,2,23,6,29,0.39,4,Rain,151
2013-5-10,62,52,41,61,46,39,100,95,93,29.97,29.89,29.77,9,3,0,17,10,24,0.00,8,Fog,317
2013-5-11,62,51,39,52,41,33,100,81,58,30.03,29.94,29.85,10,8,2,28,8,39,0.00,6,,289
2013-5-12,54,44,34,32,28,26,78,54,35,30.13,30.09,30.04,10,10,10,17,6,26,0.00,2,,319
2013-5-13,64,49,33,34,28,20,85,48,23,30.20,30.13,30.06,10,10,10,15,5,22,0.00,2,,48
2013-5-14,88,70,52,59,46,28,56,43,26,30.04,29.82,29.69,10,10,10,25,12,33,0.00,1,,207
2013-5-15,82,70,57,59,52,48,72,48,31,29.83,29.77,29.67,10,10,10,21,8,28,0.00,0,,296
2013-5-16,85,69,53,51,45,39,83,47,21,29.97,29.91,29.83,10,10,10,13,4,20,0.00,0,,31
2013-5-17,81,68,55,63,56,45,96,69,43,30.05,30.02,29.97,10,8,2,23,5,28,0.19,4,Rain,102
2013-5-18,78,68,57,63,58,48,100,73,56,30.09,30.03,29.97,10,9,2,12,5,17,T,5,,102
2013-5-19,87,73,58,65,61,56,93,66,43,29.98,29.90,29.81,10,9,5,17,7,25,0.00,1,,142
2013-5-20,89,77,65,67,64,58,90,63,36,29.86,29.80,29.75,10,9,4,29,12,35,0.03,2,,188
2013-5-21,82,73,64,65,63,61,96,77,56,29.82,29.75,29.69,10,9,1,23,11,31,0.68,4,Rain,213
2013-5-22,76,69,61,66,62,53,94,78,49,29.76,29.69,29.66,10,9,2,25,11,33,0.10,7,Rain,218
2013-5-23,61,51,40,55,44,35,97,89,66,30.27,29.99,29.75,10,5,2,22,11,33,0.04,7,Rain,332
2013-5-24,55,47,39,39,36,31,86,68,45,30.43,30.37,30.27,10,10,10,14,6,20,0.00,1,,351
2013-5-25,60,48,36,48,41,34,97,73,61,30.41,30.36,30.29,10,10,10,9,3,12,0.00,6,,346
2013-5-26,71,57,42,54,45,39,92,68,40,30.31,30.25,30.15,10,10,7,14,6,18,0.02,3,Rain,106
2013-5-27,64,59,53,61,56,52,100,92,78,30.15,30.00,29.88,10,5,1,18,10,24,0.50,8,Rain,107
2013-5-28,80,72,63,68,64,61,100,84,62,29.93,29.85,29.78,10,8,0,28,12,39,0.70,6,Fog-Rain,197
2013-5-29,85,75,65,70,64,60,93,71,51,29.98,29.93,29.84,10,10,10,21,10,29,0.16,3,Rain,201
2013-5-30,87,77,66,68,65,60,81,67,51,29.98,29.93,29.87,10,10,2,26,14,38,0.21,2,Rain,184
2013-5-31,77,72,66,68,65,62,94,81,69,29.96,29.86,29.75,10,10,5,22,11,29,0.19,5,Rain,185